This is the latest recevied weather packets stored in our database for station/object KB2FWP. If no packets are shown the sender has not sent any weather packets the latest 10 day(s).
| Time | Temp. | Humidity | Pressure | Rain* | Wind** | Luminosity | Snow |
|---|---|---|---|---|---|---|---|
| 1787596201 | 26.67° C | 63% | 1014.9 hPa | 0 mm | - | - | - |
| 1787595362 | 26.67° C | 63% | 1014.9 hPa | 0 mm | - | - | - |
| 1787594468 | 26.67° C | 60% | 1014.8 hPa | 0 mm | - | - | - |
| 1787593558 | 26.67° C | 61% | 1014.8 hPa | 0 mm | - | - | - |
| 1787592665 | 26.67° C | 60% | 1015 hPa | 0 mm | - | - | - |
| 1787591763 | 27.22° C | 61% | 1014.9 hPa | 0 mm | - | - | - |
| 1787590862 | 26.67° C | 59% | 1015 hPa | 0 mm | - | - | - |
| 1787589953 | 26.67° C | 59% | 1015.1 hPa | 0 mm | - | - | - |
| 1787589052 | 26.11° C | 60% | 1015.2 hPa | 0 mm | - | - | - |
| 1787588154 | 25.56° C | 63% | 1015.3 hPa | 0 mm | - | - | - |
| 1787587249 | 25° C | 67% | 1015.4 hPa | 0 mm | - | - | - |
| 1787586346 | 25° C | 68% | 1015.5 hPa | 0 mm | - | - | - |
| 1787585455 | 24.44° C | 76% | 1015.6 hPa | 0 mm | - | - | - |
| 1787584545 | 25° C | 78% | 1015.8 hPa | 0 mm | - | - | - |
| 1787583644 | 25° C | 70% | 1015.8 hPa | 0 mm | - | - | - |
| 1787582746 | 25° C | 70% | 1015.7 hPa | 0 mm | - | - | - |
| 1787581844 | 24.44° C | 70% | 1015.7 hPa | 0 mm | - | - | - |
| 1787580940 | 25° C | 68% | 1015.7 hPa | 0 mm | - | - | - |
| 1787580044 | 24.44° C | 72% | 1015.7 hPa | 0 mm | - | - | - |
| 1787579142 | 24.44° C | 70% | 1015.5 hPa | 0 mm | - | - | - |
| 1787578235 | 23.89° C | 70% | 1015.4 hPa | 0 mm | - | - | - |
| 1787577335 | 23.89° C | 70% | 1015.4 hPa | 0 mm | - | - | - |
| 1787576430 | 23.33° C | 75% | 1015.4 hPa | 0 mm | - | - | - |
| 1787575531 | 22.78° C | 79% | 1015.3 hPa | 0 mm | - | - | - |
| 1787574627 | 22.78° C | 78% | 1015.3 hPa | 0 mm | - | - | - |
* Rain latest hour (hover to see other rain measurements)
** Current wind speed in m/s (hover to see current wind gust speed)